Weather History for K40B - October, 2011

Change the Weather History Date:

Saturday, October 29, 2011

  Actual Average Record
Temperature  
Mean Temperature 32 °F -  
Max Temperature 40 °F 41 °F 56 °F (2012)
Min Temperature 24 °F 25 °F 0 °F (1996)
Degree Days  
Heating Degree Days 34    
Moisture  
Dew Point 24 °F    
Average Humidity 73    
Maximum Humidity 88    
Minimum Humidity 50    
Precipitation  
Precipitation 0.01 in - - ()
Sea Level Pressure  
Sea Level Pressure 30.22 in    
Wind  
Wind Speed 2 mph (North)    
Max Wind Speed 5 mph    
Max Gust Speed -    
Averages and records for this station are not official NWS values.
T = Trace of Precipitation, MM = Missing Value Source: NWS Daily Summary

Daily Weather History Graph

Daily Weather History Graph

Search for Another Location

Airport or City:

Trip Planner

Search our weather history database for the weather conditions in past years. The results will help you decide how hot, cold, wet, or windy it might be!

Date:

Astronomy

Oct. 29, 2011 Rise Set
Actual Time 7:15 AM EDT 5:27 PM EDT
Civil Twilight 6:43 AM EDT 5:59 PM EDT
Nautical Twilight 6:08 AM EDT 6:34 PM EDT
Astronomical Twilight 5:33 AM EDT 7:09 PM EDT
Moon 10:45 AM EDT (10/29) 7:35 PM EDT (10/29)
Length of Visible Light 11h 15m
Length of Day
10h 12m
Waxing Crescent, 11% of the Moon is Illuminated
Oct 29
Waxing Crescent
Nov 2
First Quarter
Nov 10
Full
Nov 18
Last Quarter
Nov 25
New

Hourly Weather History & Observations

Time (EDT) Temp. Windchill Dew Point Humidity Pressure Visibility Wind Dir Wind Speed Gust Speed Precip Events Conditions
12:25 AM 30.2 °F 26.7 °F 24.4 °F 79% 30.17 in - Variable 3.5 mph - N/A   Unknown
1:25 AM 30.7 °F - 24.6 °F 78% 30.20 in - Variable 2.3 mph - N/A   Unknown
2:25 AM 30.0 °F - 24.1 °F 79% 30.21 in - Calm Calm - N/A   Unknown
3:25 AM 28.6 °F 24.8 °F 23.4 °F 81% 30.21 in - Variable 3.5 mph - N/A   Unknown
4:25 AM 26.8 °F - 23.0 °F 86% 30.23 in - Calm Calm - N/A   Unknown
5:25 AM 26.2 °F - 22.6 °F 86% 30.25 in - Calm Calm - N/A   Unknown
6:25 AM 26.1 °F - 22.6 °F 87% 30.27 in - Calm Calm - N/A   Unknown
7:25 AM 24.6 °F - 21.6 °F 88% 30.29 in - Calm Calm - N/A   Unknown
8:25 AM 27.7 °F - 23.0 °F 83% 30.30 in - Calm Calm - N/A   Unknown
9:25 AM 30.2 °F 25.4 °F 22.6 °F 73% 30.30 in - Variable 4.6 mph - 0.01 in   Unknown
10:25 AM 36.5 °F - 23.9 °F 60% 30.28 in - Calm Calm - N/A   Unknown
11:25 AM 36.0 °F 32.1 °F 20.8 °F 54% 30.28 in - Variable 4.6 mph - N/A   Unknown
12:25 PM 38.8 °F - 23.4 °F 54% 30.25 in - Calm Calm - N/A   Unknown
1:25 PM 39.7 °F 37.6 °F 23.4 °F 52% 30.26 in - Variable 3.5 mph - N/A   Unknown
2:25 PM 39.7 °F - 22.3 °F 50% 30.23 in - Calm Calm - N/A   Unknown
3:25 PM 39.6 °F - 22.6 °F 51% 30.21 in - Calm Calm - N/A   Unknown
4:25 PM 38.1 °F - 24.6 °F 58% 30.19 in - Calm Calm - N/A   Unknown
5:25 PM 34.2 °F - 26.8 °F 74% 30.18 in - Calm Calm - N/A   Unknown
6:25 PM 32.5 °F - 26.6 °F 79% 30.17 in - Calm Calm - N/A   Unknown
7:25 PM 32.4 °F - 27.0 °F 80% 30.19 in - Calm Calm - N/A   Unknown
8:25 PM 32.2 °F - 26.4 °F 79% 30.16 in - Calm Calm - 0.00 in   Unknown
9:25 PM 32.5 °F - 26.4 °F 78% 30.16 in - Calm Calm - N/A   Unknown
10:25 PM 32.2 °F 28.9 °F 26.1 °F 78% 30.13 in - Variable 3.5 mph - N/A   Unknown
11:25 PM 32.0 °F 28.7 °F 25.7 °F 78% 30.09 in - Variable 3.5 mph - 0.00 in   Unknown